When you browse on this site, cookies collect data to enhance your experience and personalize the content and advertising you see.
Visit our Privacy Policy to learn more. By continuing to use the site, you agree to this use of cookies and data.
  • In Latvia
  • List of Countries
  • For 7 days
  • Water Temperature
  • Weather Map
  • Weather Widgets
  • user-avatar
    Login

    Hourly Weather Ganja

    Today, 18 August, Sunday

    Time Temperature Precipitation Wind Pressure Humidity
    00:00 +25°C° 0 mm 2 mps 723 mmHg 47%
    01:00 +25°C° 0 mm 2 mps 723 mmHg 49%
    02:00 +24°C° 0 mm 1 mps 723 mmHg 52%
    03:00 +23°C° 0 mm 1 mps 723 mmHg 53%
    04:00 +23°C° 0 mm 1 mps 723 mmHg 54%
    05:00 +23°C° 0 mm 1 mps 723 mmHg 55%
    06:00 +24°C° 0 mm 1 mps 723 mmHg 55%
    07:00 +25°C° 0 mm 1 mps 723 mmHg 49%
    08:00 +27°C° 0 mm 2 mps 723 mmHg 43%
    09:00 +29°C° 0 mm 2 mps 724 mmHg 37%
    10:00 +31°C° 0 mm 3 mps 723 mmHg 32%
    11:00 +34°C° 0 mm 3 mps 723 mmHg 27%
    12:00 +35°C° 0 mm 4 mps 723 mmHg 22%
    13:00 +36°C° 0 mm 4 mps 723 mmHg 20%
    14:00 +37°C° 0 mm 5 mps 722 mmHg 19%
    15:00 +37°C° 0 mm 5 mps 722 mmHg 18%
    16:00 +36°C° 0 mm 5 mps 722 mmHg 20%
    17:00 +35°C° 0 mm 5 mps 722 mmHg 22%
    18:00 +35°C° 0 mm 5 mps 722 mmHg 24%
    19:00 +33°C° 0 mm 4 mps 723 mmHg 26%
    20:00 +30°C° 0 mm 4 mps 723 mmHg 27%
    21:00 +29°C° 0 mm 4 mps 724 mmHg 29%
    22:00 +28°C° 0 mm 3 mps 724 mmHg 30%
    23:00 +27°C° 0 mm 3 mps 724 mmHg 32%

    Tomorrow, 19 August, Monday

    Time Temperature Precipitation Wind Pressure Humidity
    00:00 +26°C° 0 mm 2 mps 724 mmHg 33%
    01:00 +25°C° 0 mm 2 mps 724 mmHg 34%
    02:00 +25°C° 0 mm 1 mps 724 mmHg 35%
    03:00 +24°C° 0 mm 1 mps 724 mmHg 37%
    04:00 +24°C° 0 mm 1 mps 724 mmHg 37%
    05:00 +24°C° 0 mm 1 mps 725 mmHg 38%
    06:00 +24°C° 0 mm 1 mps 725 mmHg 39%
    07:00 +26°C° 0 mm 1 mps 725 mmHg 35%
    08:00 +28°C° 0 mm 1 mps 725 mmHg 31%
    09:00 +30°C° 0 mm 2 mps 726 mmHg 28%
    10:00 +33°C° 0 mm 3 mps 726 mmHg 24%
    11:00 +35°C° 0 mm 3 mps 726 mmHg 21%
    12:00 +37°C° 0 mm 4 mps 726 mmHg 18%
    13:00 +37°C° 0 mm 5 mps 726 mmHg 16%
    14:00 +39°C° 0 mm 5 mps 726 mmHg 15%
    15:00 +40°C° 0 mm 6 mps 725 mmHg 13%
    16:00 +39°C° 0 mm 5 mps 726 mmHg 15%
    17:00 +37°C° 0 mm 5 mps 726 mmHg 17%
    18:00 +35°C° 0 mm 4 mps 726 mmHg 19%
    19:00 +34°C° 0 mm 4 mps 726 mmHg 21%
    20:00 +32°C° 0 mm 5 mps 727 mmHg 22%
    21:00 +29°C° 0 mm 5 mps 727 mmHg 24%
    22:00 +28°C° 0 mm 4 mps 727 mmHg 25%
    23:00 +27°C° 0 mm 3 mps 727 mmHg 27%

    Day after tomorrow, 20 August, Tuesday

    Time Temperature Precipitation Wind Pressure Humidity
    00:00 +26°C° 0 mm 2 mps 727 mmHg 28%
    01:00 +26°C° 0 mm 2 mps 727 mmHg 29%
    02:00 +25°C° 0 mm 1 mps 727 mmHg 31%
    03:00 +24°C° 0 mm 1 mps 727 mmHg 32%
    04:00 +24°C° 0 mm 1 mps 727 mmHg 33%
    05:00 +24°C° 0 mm 1 mps 728 mmHg 33%
    06:00 +24°C° 0 mm 1 mps 728 mmHg 33%
    07:00 +26°C° 0 mm 1 mps 728 mmHg 30%
    08:00 +29°C° 0 mm 2 mps 728 mmHg 27%
    09:00 +31°C° 0 mm 2 mps 728 mmHg 23%
    10:00 +32°C° 0 mm 2 mps 728 mmHg 21%
    11:00 +35°C° 0 mm 3 mps 727 mmHg 19%
    12:00 +36°C° 0 mm 3 mps 727 mmHg 16%
    13:00 +37°C° 0 mm 4 mps 727 mmHg 15%
    14:00 +38°C° 0 mm 4 mps 727 mmHg 13%
    15:00 +40°C° 0 mm 5 mps 726 mmHg 11%
    16:00 +38°C° 0 mm 4 mps 726 mmHg 13%
    17:00 +37°C° 0 mm 4 mps 726 mmHg 15%
    18:00 +36°C° 0 mm 3 mps 726 mmHg 16%
    19:00 +34°C° 0 mm 4 mps 726 mmHg 18%
    20:00 +32°C° 0 mm 4 mps 726 mmHg 19%
    21:00 +29°C° 0 mm 4 mps 727 mmHg 21%
    22:00 +28°C° 0 mm 4 mps 727 mmHg 24%
    23:00 +27°C° 0 mm 3 mps 726 mmHg 28%

    21 August, Wednesday

    Time Temperature Precipitation Wind Pressure Humidity
    00:00 +26°C° 0 mm 3 mps 726 mmHg 31%
    01:00 +25°C° 0 mm 2 mps 726 mmHg 33%
    02:00 +24°C° 0 mm 2 mps 726 mmHg 35%
    03:00 +24°C° 0 mm 1 mps 726 mmHg 37%
    04:00 +24°C° 0 mm 1 mps 726 mmHg 37%
    05:00 +24°C° 0 mm 1 mps 726 mmHg 36%
    06:00 +24°C° 0 mm 1 mps 727 mmHg 36%
    07:00 +26°C° 0 mm 1 mps 727 mmHg 33%
    08:00 +28°C° 0 mm 1 mps 727 mmHg 30%
    09:00 +30°C° 0 mm 2 mps 727 mmHg 27%
    10:00 +32°C° 0 mm 2 mps 726 mmHg 24%
    11:00 +35°C° 0 mm 3 mps 726 mmHg 21%
    12:00 +36°C° 0 mm 4 mps 726 mmHg 18%
    13:00 +37°C° 0 mm 4 mps 725 mmHg 16%
    14:00 +39°C° 0 mm 5 mps 725 mmHg 15%
    15:00 +40°C° 0 mm 5 mps 725 mmHg 13%
    16:00 +37°C° 0 mm 5 mps 724 mmHg 15%
    17:00 +36°C° 0 mm 4 mps 724 mmHg 16%
    18:00 +35°C° 0 mm 4 mps 724 mmHg 18%
    19:00 +33°C° 0 mm 4 mps 724 mmHg 19%
    20:00 +32°C° 0 mm 4 mps 725 mmHg 21%
    21:00 +29°C° 0 mm 4 mps 725 mmHg 22%
    22:00 +28°C° 0 mm 3 mps 725 mmHg 24%
    23:00 +27°C° 0 mm 3 mps 725 mmHg 26%

    22 August, Thursday

    Time Temperature Precipitation Wind Pressure Humidity
    00:00 +26°C° 0 mm 3 mps 725 mmHg 28%
    01:00 +25°C° 0 mm 2 mps 725 mmHg 30%
    02:00 +24°C° 0 mm 2 mps 725 mmHg 32%
    03:00 +24°C° 0 mm 1 mps 725 mmHg 35%
    04:00 +24°C° 0 mm 1 mps 725 mmHg 35%
    05:00 +24°C° 0 mm 1 mps 725 mmHg 35%
    06:00 +24°C° 0 mm 1 mps 725 mmHg 35%
    07:00 +26°C° 0 mm 1 mps 725 mmHg 32%
    08:00 +28°C° 0 mm 2 mps 725 mmHg 28%
    09:00 +30°C° 0 mm 2 mps 725 mmHg 25%
    10:00 +33°C° 0 mm 3 mps 724 mmHg 22%
    11:00 +35°C° 0 mm 4 mps 724 mmHg 20%
    12:00 +37°C° 0 mm 5 mps 724 mmHg 17%
    13:00 +37°C° 0 mm 5 mps 723 mmHg 16%
    14:00 +39°C° 0 mm 5 mps 723 mmHg 15%
    15:00 +40°C° 0 mm 5 mps 722 mmHg 15%
    16:00 +37°C° 0 mm 5 mps 722 mmHg 16%
    17:00 +36°C° 0 mm 5 mps 722 mmHg 17%
    18:00 +35°C° 0 mm 4 mps 722 mmHg 18%
    19:00 +34°C° 0 mm 5 mps 723 mmHg 20%
    20:00 +32°C° 0 mm 5 mps 723 mmHg 21%
    21:00 +29°C° 0 mm 5 mps 723 mmHg 23%
    22:00 +28°C° 0 mm 5 mps 723 mmHg 24%
    23:00 +28°C° 0 mm 4 mps 723 mmHg 26%

    23 August, Friday

    Time Temperature Precipitation Wind Pressure Humidity
    00:00 +27°C° 0 mm 4 mps 723 mmHg 28%
    01:00 +26°C° 0 mm 3 mps 723 mmHg 29%
    02:00 +25°C° 0 mm 3 mps 723 mmHg 31%
    03:00 +24°C° 0 mm 2 mps 723 mmHg 32%
    04:00 +24°C° 0 mm 2 mps 723 mmHg 33%
    05:00 +24°C° 0 mm 1 mps 723 mmHg 34%
    06:00 +24°C° 0 mm 1 mps 723 mmHg 35%
    07:00 +26°C° 0 mm 1 mps 723 mmHg 33%
    08:00 +28°C° 0 mm 2 mps 723 mmHg 30%
    09:00 +30°C° 0 mm 2 mps 723 mmHg 27%
    10:00 +33°C° 0 mm 3 mps 723 mmHg 25%
    11:00 +35°C° 0 mm 4 mps 723 mmHg 23%
    12:00 +37°C° 0 mm 5 mps 723 mmHg 21%
    13:00 +38°C° 0 mm 6 mps 722 mmHg 20%
    14:00 +39°C° 0 mm 6 mps 722 mmHg 19%
    15:00 +40°C° 0 mm 6 mps 722 mmHg 18%
    16:00 +39°C° 0 mm 5 mps 722 mmHg 19%
    17:00 +37°C° 0 mm 5 mps 722 mmHg 20%
    18:00 +36°C° 0 mm 4 mps 722 mmHg 22%
    19:00 +34°C° 0 mm 4 mps 722 mmHg 24%
    20:00 +32°C° 0 mm 4 mps 723 mmHg 26%
    21:00 +30°C° 0 mm 4 mps 723 mmHg 28%
    22:00 +29°C° 0 mm 4 mps 723 mmHg 29%
    23:00 +28°C° 0 mm 3 mps 723 mmHg 31%
    Show more